Location: Unspecified
(47.4992°N, 121.7766°W)
Time: 14:13:22
(UTC-07:00)

Cosmos 2058 - Visible Passes

Search period start: 25 September 2018 00:00
Search period end: 05 October 2018 00:00
Orbit: 563 x 585 km, 82.5° (Epoch: 24 September)

Date Brightness Start Highest point End Pass type
(mag) Time Alt. Az. Time Alt. Az. Time Alt. Az.
27 Sep 5.6 21:43:18 10° NNE 21:43:32 11° NNE 21:43:32 11° NNE visible
28 Sep 5.5 21:46:15 10° N 21:46:40 12° N 21:46:40 12° N visible
29 Sep 5.5 21:49:15 10° N 21:49:48 13° N 21:49:48 13° N visible
30 Sep 5.5 21:52:17 10° N 21:52:57 14° N 21:52:57 14° N visible
01 Oct 5.5 21:55:22 10° N 21:56:08 15° N 21:56:08 15° N visible
02 Oct 5.5 21:58:29 10° N 21:59:18 16° NNW 21:59:18 16° NNW visible
03 Oct 5.3 20:26:13 10° NE 20:26:17 10° NE 20:26:17 10° NE visible
03 Oct 5.6 22:01:38 10° NNW 22:02:30 16° NNW 22:02:30 16° NNW visible
04 Oct 5.1 20:28:49 10° NNE 20:29:30 13° NNE 20:29:30 13° NNE visible
04 Oct 5.6 22:04:50 10° NNW 22:05:43 16° NNW 22:05:43 16° NNW visible
